Location: Kolin
(50.0330°N, 15.2000°E)
Time: 09:37:39
(UTC+02:00)

ISS - Pass Details

Date: 25 May 2021
Orbit: 417 x 422 km, 51.6° (Epoch: 13 June)

Event Time Altitude Azimuth Distance (km) Brightness Sun altitude
Rises 23:49:05 0° 286° (WNW) 2,369 0.5 -17.3°
Reaches altitude 10° 23:51:23 10° 273° (W) 1,503 -0.7 -17.4°
Enters shadow 23:53:41 25° 233° (SW) 899 -2.3 -17.5°
